| time (UTC) | temp F | wind direction | speed knots | gust knots | rain 1hr in | rain 24hr in | rain mn in | humidity % | barometer mb |
| 20260509162034 | 38 | 0 | 0.0 | 0.0 | 0.00 | 0.00 | 0.00 | 100 | 1025.7 |
| 20260509161523 | 38 | 5 | 0.0 | 1.7 | 0.00 | 0.00 | 0.00 | 100 | 1025.7 |
| 20260509161016 | 39 | 29 | 0.0 | 1.7 | 0.00 | 0.00 | 0.00 | 100 | 1025.7 |
| 20260509160524 | 39 | 133 | 0.9 | 1.7 | 0.00 | 0.00 | 0.00 | 100 | 1025.7 |
| 20260509160016 | 39 | 136 | 0.9 | 1.7 | 0.00 | 0.00 | 0.00 | 100 | 1025.7 |
| 20260509155551 | 39 | 339 | 0.9 | 1.7 | 0.00 | 0.00 | 0.00 | 99 | 1025.7 |
| 20260509155019 | 39 | 336 | 0.9 | 1.7 | 0.00 | 0.00 | 0.00 | 100 | 1025.9 |
| 20260509153028 | 39 | 341 | 0.9 | 1.7 | 0.00 | 0.00 | 0.00 | 100 | 1026.0 |
| 20260509152522 | 39 | 15 | 0.0 | 0.9 | 0.00 | 0.00 | 0.00 | 100 | 1025.9 |
| 20260509152030 | 39 | 104 | 0.9 | 1.7 | 0.00 | 0.00 | 0.00 | 100 | 1025.9 |
| 20260509151532 | 39 | 124 | 0.9 | 1.7 | 0.00 | 0.00 | 0.00 | 100 | 1026.0 |
| 20260509151046 | 39 | 184 | 0.0 | 0.9 | 0.00 | 0.00 | 0.00 | 100 | 1025.8 |
| 20260509150523 | 39 | 240 | 0.9 | 1.7 | 0.00 | 0.00 | 0.00 | 100 | 1025.8 |
| 20260509150012 | 39 | 282 | 0.9 | 1.7 | 0.00 | 0.00 | 0.00 | 100 | 1025.9 |
| 20260509145513 | 39 | 323 | 0.9 | 1.7 | 0.00 | 0.00 | 0.00 | 100 | 1025.8 |
| 20260509145023 | 40 | 337 | 0.9 | 1.7 | 0.00 | 0.00 | 0.00 | 100 | 1025.9 |
| 20260509144523 | 40 | 131 | 0.0 | 0.9 | 0.00 | 0.00 | 0.00 | 100 | 1025.8 |
| 20260509144022 | 40 | 118 | 0.0 | 1.7 | 0.00 | 0.00 | 0.00 | 100 | 1025.8 |
| 20260509143523 | 40 | 121 | 0.0 | 1.7 | 0.00 | 0.00 | 0.00 | 100 | 1025.8 |
| 20260509143014 | 40 | 89 | 0.9 | 1.7 | 0.00 | 0.00 | 0.00 | 100 | 1025.9 |
| 20260509142512 | 40 | 326 | 0.9 | 2.6 | 0.00 | 0.00 | 0.00 | 100 | 1025.8 |
| 20260509142013 | 40 | 321 | 0.9 | 2.6 | 0.00 | 0.00 | 0.00 | 100 | 1025.8 |
| 20260509141512 | 39 | 345 | 0.9 | 2.6 | 0.00 | 0.00 | 0.00 | 100 | 1025.8 |
| 20260509141015 | 40 | 14 | 0.0 | 0.9 | 0.00 | 0.00 | 0.00 | 100 | 1025.8 |
| 20260509140514 | 40 | 310 | 0.0 | 0.9 | 0.00 | 0.00 | 0.00 | 100 | 1025.8 |
| 20260509140027 | 41 | 345 | 0.0 | 0.9 | 0.00 | 0.00 | 0.00 | 100 | 1025.8 |
| 20260509135513 | 41 | 339 | 0.0 | 0.9 | 0.00 | 0.00 | 0.00 | 100 | 1025.7 |
| 20260509135022 | 41 | 321 | 0.9 | 1.7 | 0.00 | 0.00 | 0.00 | 100 | 1025.7 |
| 20260509134515 | 41 | 327 | 0.9 | 1.7 | 0.00 | 0.00 | 0.00 | 100 | 1025.8 |
| 20260509134013 | 41 | 131 | 0.0 | 0.9 | 0.00 | 0.00 | 0.00 | 100 | 1025.8 |
| 20260509133513 | 42 | 182 | 0.0 | 0.9 | 0.00 | 0.00 | 0.00 | 100 | 1025.9 |
| 20260509133027 | 42 | 264 | 0.0 | 0.9 | 0.00 | 0.00 | 0.00 | 100 | 1025.8 |
| 20260509132524 | 42 | 21 | 0.0 | 0.9 | 0.00 | 0.00 | 0.00 | 100 | 1025.7 |
| 20260509132015 | 42 | 66 | 0.9 | 1.7 | 0.00 | 0.00 | 0.00 | 100 | 1025.8 |
| 20260509131514 | 42 | 140 | 0.9 | 1.7 | 0.00 | 0.00 | 0.00 | 100 | 1025.8 |
| 20260509131019 | 42 | 171 | 0.9 | 1.7 | 0.00 | 0.00 | 0.00 | 100 | 1026.0 |
| 20260509130522 | 42 | 142 | 0.9 | 1.7 | 0.00 | 0.00 | 0.00 | 100 | 1026.0 |
| 20260509130118 | 42 | 127 | 0.9 | 1.7 | 0.00 | 0.00 | 0.00 | 100 | 1025.9 |
| 20260509125524 | 42 | 77 | 0.0 | 1.7 | 0.00 | 0.00 | 0.00 | 99 | 1026.0 |
| 20260509125023 | 42 | 20 | 0.0 | 0.9 | 0.00 | 0.00 | 0.00 | 100 | 1025.9 |
| 20260509124513 | 42 | 17 | 0.0 | 0.9 | 0.00 | 0.00 | 0.00 | 100 | 1025.9 |
| 20260509124054 | 42 | 32 | 0.0 | 0.9 | 0.00 | 0.00 | 0.00 | 100 | 1025.9 |
| 20260509123523 | 42 | 24 | 0.9 | 2.6 | 0.00 | 0.00 | 0.00 | 100 | 1025.8 |
| 20260509123022 | 43 | 21 | 0.9 | 2.6 | 0.00 | 0.00 | 0.00 | 100 | 1025.9 |
| 20260509122524 | 43 | 131 | 0.9 | 2.6 | 0.00 | 0.00 | 0.00 | 100 | 1025.9 |
| 20260509122023 | 43 | 176 | 0.9 | 1.7 | 0.00 | 0.00 | 0.00 | 100 | 1025.7 |
| 20260509121513 | 44 | 147 | 0.9 | 1.7 | 0.00 | 0.00 | 0.00 | 100 | 1025.7 |
| 20260509121012 | 44 | 93 | 1.7 | 2.6 | 0.00 | 0.00 | 0.00 | 100 | 1025.6 |
| 20260509120543 | 43 | 73 | 1.7 | 2.6 | 0.00 | 0.00 | 0.00 | 100 | 1025.6 |
| 20260509120012 | 43 | 59 | 0.9 | 2.6 | 0.00 | 0.00 | 0.00 | 100 | 1025.7 |
| 20260509115523 | 43 | 81 | 0.9 | 1.7 | 0.00 | 0.00 | 0.00 | 100 | 1025.8 |
| 20260509115033 | 43 | 128 | 0.9 | 1.7 | 0.00 | 0.00 | 0.00 | 100 | 1025.7 |
| 20260509114532 | 43 | 158 | 0.0 | 1.7 | 0.00 | 0.00 | 0.00 | 100 | 1025.7 |
| 20260509114024 | 43 | 241 | 0.0 | 0.9 | 0.00 | 0.00 | 0.00 | 100 | 1025.8 |
| 20260509113512 | 44 | 19 | 0.0 | 1.7 | 0.00 | 0.00 | 0.00 | 100 | 1025.9 |
| 20260509113013 | 44 | 260 | 0.0 | 1.7 | 0.00 | 0.00 | 0.00 | 100 | 1025.8 |
| 20260509112513 | 44 | 170 | 0.0 | 0.9 | 0.00 | 0.00 | 0.00 | 100 | 1025.9 |
| 20260509112025 | 44 | 156 | 0.0 | 0.9 | 0.00 | 0.00 | 0.00 | 100 | 1025.8 |
| 20260509111513 | 44 | 117 | 0.0 | 1.7 | 0.00 | 0.00 | 0.00 | 100 | 1025.7 |
| 20260509111014 | 44 | 82 | 0.0 | 1.7 | 0.00 | 0.00 | 0.00 | 100 | 1025.7 |
| 20260509110623 | 44 | 98 | 0.9 | 0.9 | 0.00 | 0.00 | 0.00 | 100 | 1025.7 |
| 20260509110023 | 44 | 67 | 0.9 | 2.6 | 0.00 | 0.00 | 0.00 | 100 | 1025.5 |
| 20260509105513 | 44 | 59 | 0.9 | 2.6 | 0.00 | 0.00 | 0.00 | 100 | 1025.6 |
| 20260509105015 | 45 | 195 | 0.9 | 2.6 | 0.00 | 0.00 | 0.00 | 99 | 1025.5 |
| 20260509104523 | 45 | 257 | 0.9 | 1.7 | 0.00 | 0.00 | 0.00 | 99 | 1025.4 |
| 20260509104023 | 46 | 134 | 0.9 | 2.6 | 0.00 | 0.00 | 0.00 | 99 | 1025.4 |
| 20260509103513 | 46 | 102 | 1.7 | 2.6 | 0.00 | 0.00 | 0.00 | 100 | 1025.4 |
| 20260509103023 | 46 | 84 | 0.9 | 2.6 | 0.00 | 0.00 | 0.00 | 100 | 1025.3 |
| 20260509102513 | 46 | 51 | 0.9 | 1.7 | 0.00 | 0.00 | 0.00 | 100 | 1025.1 |
| 20260509102012 | 46 | 224 | 0.9 | 1.7 | 0.00 | 0.00 | 0.00 | 99 | 1025.1 |
| 20260509101523 | 46 | 114 | 0.9 | 1.7 | 0.00 | 0.00 | 0.00 | 100 | 1025.1 |
| 20260509101024 | 46 | 87 | 0.9 | 1.7 | 0.00 | 0.00 | 0.00 | 100 | 1025.1 |
| 20260509100522 | 46 | 84 | 0.9 | 1.7 | 0.00 | 0.00 | 0.00 | 100 | 1025.1 |
| 20260509100014 | 45 | 138 | 0.0 | 1.7 | 0.00 | 0.00 | 0.00 | 100 | 1025.0 |
| 20260509095512 | 46 | 217 | 0.0 | 0.9 | 0.00 | 0.00 | 0.00 | 99 | 1025.0 |
| 20260509095033 | 45 | 257 | 0.0 | 0.9 | 0.00 | 0.00 | 0.00 | 100 | 1024.9 |
| 20260509094523 | 46 | 333 | 0.9 | 1.7 | 0.00 | 0.00 | 0.00 | 98 | 1024.9 |
| 20260509094024 | 46 | 319 | 1.7 | 3.5 | 0.00 | 0.00 | 0.00 | 99 | 1024.9 |
| 20260509093512 | 46 | 317 | 0.9 | 3.5 | 0.00 | 0.00 | 0.00 | 99 | 1025.0 |
| 20260509093022 | 47 | 343 | 0.9 | 2.6 | 0.00 | 0.00 | 0.00 | 98 | 1024.9 |
| 20260509092559 | 47 | 331 | 0.9 | 2.6 | 0.00 | 0.00 | 0.00 | 97 | 1024.8 |
| 20260509092022 | 47 | 228 | 0.0 | 0.9 | 0.00 | 0.00 | 0.00 | 97 | 1024.9 |
| 20260509091524 | 47 | 216 | 0.0 | 0.9 | 0.00 | 0.00 | 0.00 | 97 | 1024.8 |
| 20260509091014 | 48 | 128 | 0.0 | 0.9 | 0.00 | 0.00 | 0.00 | 96 | 1024.7 |
| 20260509090512 | 48 | 149 | 0.0 | 0.9 | 0.00 | 0.00 | 0.00 | 95 | 1024.7 |
| 20260509085524 | 48 | 155 | 0.9 | 1.7 | 0.00 | 0.00 | 0.00 | 93 | 1024.7 |
| 20260509085033 | 48 | 130 | 0.9 | 1.7 | 0.00 | 0.00 | 0.00 | 93 | 1024.6 |
| 20260509084514 | 48 | 65 | 0.9 | 1.7 | 0.00 | 0.00 | 0.00 | 94 | 1024.5 |
| 20260509084023 | 48 | 52 | 0.9 | 0.9 | 0.00 | 0.00 | 0.00 | 92 | 1024.4 |
| 20260509083518 | 49 | 53 | 0.9 | 0.9 | 0.00 | 0.00 | 0.00 | 92 | 1024.4 |
| 20260509083144 | 49 | 224 | 0.0 | 1.7 | 0.00 | 0.00 | 0.00 | 93 | 1024.4 |
| 20260509082513 | 49 | 271 | 0.9 | 2.6 | 0.00 | 0.00 | 0.00 | 91 | 1024.2 |
| 20260509082014 | 50 | 322 | 1.7 | 2.6 | 0.00 | 0.00 | 0.00 | 89 | 1024.1 |
| 20260509081513 | 51 | 320 | 1.7 | 2.6 | 0.00 | 0.00 | 0.00 | 87 | 1024.1 |
| 20260509081022 | 51 | 316 | 1.7 | 2.6 | 0.00 | 0.00 | 0.00 | 86 | 1023.9 |
| 20260509080533 | 51 | 314 | 1.7 | 2.6 | 0.00 | 0.00 | 0.00 | 85 | 1023.8 |
| 20260509080022 | 51 | 318 | 1.7 | 2.6 | 0.00 | 0.00 | 0.00 | 86 | 1023.7 |
| 20260509075513 | 51 | 334 | 1.7 | 2.6 | 0.00 | 0.00 | 0.00 | 85 | 1023.7 |
| 20260509075023 | 51 | 333 | 1.7 | 2.6 | 0.00 | 0.00 | 0.00 | 85 | 1023.6 |
| 20260509074514 | 51 | 338 | 0.9 | 2.6 | 0.00 | 0.00 | 0.00 | 85 | 1023.6 |
| 20260509074023 | 51 | 340 | 1.7 | 3.5 | 0.00 | 0.00 | 0.00 | 85 | 1023.6 |
| 20260509073523 | 51 | 332 | 1.7 | 3.5 | 0.00 | 0.00 | 0.00 | 85 | 1023.6 |
| 20260509073032 | 51 | 321 | 0.9 | 2.6 | 0.00 | 0.00 | 0.00 | 85 | 1023.5 |
| 20260509072514 | 52 | 321 | 0.9 | 2.6 | 0.00 | 0.00 | 0.00 | 84 | 1023.5 |
| 20260509072024 | 52 | 311 | 0.9 | 1.7 | 0.00 | 0.00 | 0.00 | 83 | 1023.4 |
| 20260509071514 | 53 | 326 | 0.9 | 2.6 | 0.00 | 0.00 | 0.00 | 83 | 1023.3 |
| 20260509071023 | 53 | 329 | 0.9 | 2.6 | 0.00 | 0.00 | 0.00 | 81 | 1023.2 |
| 20260509070523 | 54 | 310 | 0.9 | 2.6 | 0.00 | 0.00 | 0.00 | 78 | 1023.2 |
| 20260509070022 | 56 | 329 | 2.6 | 5.2 | 0.00 | 0.00 | 0.00 | 74 | 1023.1 |
| 20260509065516 | 56 | 344 | 4.3 | 5.2 | 0.00 | 0.00 | 0.00 | 70 | 1023.1 |
| 20260509065015 | 57 | 322 | 4.3 | 5.2 | 0.00 | 0.00 | 0.00 | 70 | 1023.0 |
| 20260509064514 | 58 | 322 | 4.3 | 6.1 | 0.00 | 0.00 | 0.00 | 67 | 1023.0 |
| 20260509064013 | 58 | 321 | 5.2 | 7.0 | 0.00 | 0.00 | 0.00 | 64 | 1023.0 |
| 20260509063513 | 58 | 318 | 6.1 | 8.7 | 0.00 | 0.00 | 0.00 | 63 | 1022.9 |
| 20260509063014 | 59 | 314 | 7.0 | 8.7 | 0.00 | 0.00 | 0.00 | 65 | 1022.9 |
| 20260509062523 | 59 | 315 | 7.0 | 8.7 | 0.00 | 0.00 | 0.00 | 64 | 1022.9 |
| 20260509062017 | 60 | 317 | 7.0 | 8.7 | 0.00 | 0.00 | 0.00 | 61 | 1022.8 |
| 20260509061517 | 60 | 318 | 7.0 | 8.7 | 0.00 | 0.00 | 0.00 | 59 | 1022.7 |
| 20260509061014 | 60 | 318 | 7.0 | 8.7 | 0.00 | 0.00 | 0.00 | 60 | 1022.9 |
| 20260509060524 | 60 | 317 | 6.1 | 9.6 | 0.00 | 0.00 | 0.00 | 59 | 1022.8 |
| 20260509060014 | 61 | 311 | 6.1 | 9.6 | 0.00 | 0.00 | 0.00 | 58 | 1022.8 |
| 20260509055528 | 61 | 301 | 6.1 | 9.6 | 0.00 | 0.00 | 0.00 | 57 | 1022.8 |
| 20260509055022 | 61 | 302 | 7.0 | 9.6 | 0.00 | 0.00 | 0.00 | 57 | 1022.7 |
| 20260509054523 | 61 | 302 | 6.1 | 9.6 | 0.00 | 0.00 | 0.00 | 56 | 1022.7 |
| 20260509054022 | 61 | 298 | 6.1 | 7.8 | 0.00 | 0.00 | 0.00 | 57 | 1022.6 |
| 20260509053513 | 62 | 297 | 6.1 | 8.7 | 0.00 | 0.00 | 0.00 | 55 | 1022.5 |
| 20260509053055 | 62 | 293 | 5.2 | 8.7 | 0.00 | 0.00 | 0.00 | 57 | 1022.6 |
| 20260509052522 | 62 | 316 | 5.2 | 7.8 | 0.00 | 0.00 | 0.00 | 55 | 1022.7 |
| 20260509052015 | 62 | 342 | 5.2 | 7.8 | 0.00 | 0.00 | 0.00 | 51 | 1022.6 |
| 20260509051523 | 62 | 8 | 2.6 | 5.2 | 0.00 | 0.00 | 0.00 | 52 | 1022.6 |
| 20260509051024 | 63 | 1 | 3.5 | 5.2 | 0.00 | 0.00 | 0.00 | 49 | 1022.7 |
| 20260509050514 | 63 | 8 | 3.5 | 5.2 | 0.00 | 0.00 | 0.00 | 51 | 1022.7 |
| 20260509050022 | 62 | 11 | 3.5 | 5.2 | 0.00 | 0.00 | 0.00 | 52 | 1022.7 |
| 20260509045514 | 62 | 354 | 2.6 | 4.3 | 0.00 | 0.00 | 0.00 | 51 | 1022.7 |
| 20260509045014 | 63 | 355 | 2.6 | 4.3 | 0.00 | 0.00 | 0.00 | 49 | 1022.7 |
| 20260509044536 | 63 | 2 | 4.3 | 6.1 | 0.00 | 0.00 | 0.00 | 51 | 1022.6 |
| 20260509044013 | 63 | 345 | 4.3 | 6.1 | 0.00 | 0.00 | 0.00 | 52 | 1022.8 |
| 20260509043523 | 63 | 343 | 4.3 | 7.0 | 0.00 | 0.00 | 0.00 | 52 | 1022.7 |
| 20260509043015 | 62 | 331 | 4.3 | 7.0 | 0.00 | 0.00 | 0.00 | 51 | 1022.8 |
| 20260509042512 | 62 | 298 | 5.2 | 9.6 | 0.00 | 0.00 | 0.00 | 52 | 1022.7 |
| 20260509042027 | 61 | 305 | 4.3 | 9.6 | 0.00 | 0.00 | 0.00 | 54 | 1022.8 |
| 20260509041513 | 62 | 339 | 4.3 | 7.0 | 0.00 | 0.00 | 0.00 | 53 | 1022.8 |
| 20260509041015 | 62 | 344 | 5.2 | 8.7 | 0.00 | 0.00 | 0.00 | 54 | 1022.8 |
| 20260509040524 | 61 | 313 | 5.2 | 8.7 | 0.00 | 0.00 | 0.00 | 55 | 1022.7 |
| 20260509040025 | 61 | 297 | 6.1 | 8.7 | 0.00 | 0.00 | 0.00 | 56 | 1022.8 |
| 20260509035522 | 61 | 308 | 6.1 | 8.7 | 0.00 | 0.00 | 0.00 | 57 | 1022.8 |
| 20260509035012 | 61 | 337 | 5.2 | 8.7 | 0.00 | 0.00 | 0.00 | 56 | 1022.8 |
| 20260509034511 | 62 | 349 | 5.2 | 9.6 | 0.00 | 0.00 | 0.00 | 56 | 1022.8 |
| 20260509034011 | 62 | 314 | 6.1 | 9.6 | 0.00 | 0.00 | 0.00 | 53 | 1022.9 |
| 20260509033512 | 61 | 313 | 7.8 | 11.3 | 0.00 | 0.00 | 0.00 | 54 | 1022.9 |
| 20260509033012 | 61 | 315 | 7.0 | 11.3 | 0.00 | 0.00 | 0.00 | 57 | 1022.8 |
| 20260509032512 | 61 | 346 | 5.2 | 9.6 | 0.00 | 0.00 | 0.00 | 56 | 1022.9 |
| 20260509032012 | 60 | 2 | 4.3 | 7.8 | 0.00 | 0.00 | 0.00 | 59 | 1022.9 |
| 20260509031512 | 62 | 4 | 5.2 | 8.7 | 0.00 | 0.00 | 0.00 | 51 | 1022.9 |
| 20260509031022 | 61 | 351 | 4.3 | 8.7 | 0.00 | 0.00 | 0.00 | 54 | 1023.1 |
| 20260509030522 | 61 | 355 | 3.5 | 8.7 | 0.00 | 0.00 | 0.00 | 53 | 1023.2 |
| 20260509030011 | 59 | 345 | 3.5 | 8.7 | 0.00 | 0.00 | 0.00 | 62 | 1023.2 |
| 20260509025521 | 60 | 308 | 4.3 | 7.8 | 0.00 | 0.00 | 0.00 | 57 | 1023.2 |
| 20260509025023 | 59 | 307 | 5.2 | 8.7 | 0.00 | 0.00 | 0.00 | 58 | 1023.3 |
| 20260509024511 | 60 | 317 | 5.2 | 8.7 | 0.00 | 0.00 | 0.00 | 57 | 1023.3 |
| 20260509024012 | 60 | 337 | 4.3 | 8.7 | 0.00 | 0.00 | 0.00 | 51 | 1023.4 |
| 20260509023511 | 59 | 328 | 3.5 | 6.1 | 0.00 | 0.00 | 0.00 | 52 | 1023.4 |
| 20260509022511 | 58 | 1 | 2.6 | 5.2 | 0.00 | 0.00 | 0.00 | 56 | 1023.6 |
| 20260509022022 | 59 | 318 | 2.6 | 5.2 | 0.00 | 0.00 | 0.00 | 52 | 1023.7 |
| 20260509021512 | 58 | 321 | 2.6 | 5.2 | 0.00 | 0.00 | 0.00 | 54 | 1023.9 |
| 20260509021022 | 58 | 346 | 2.6 | 4.3 | 0.00 | 0.00 | 0.00 | 54 | 1024.0 |
| 20260509020513 | 58 | 347 | 3.5 | 5.2 | 0.00 | 0.00 | 0.00 | 56 | 1024.0 |
| 20260509020022 | 57 | 34 | 3.5 | 6.1 | 0.00 | 0.00 | 0.00 | 63 | 1024.1 |
| 20260509015512 | 58 | 30 | 3.5 | 6.1 | 0.00 | 0.00 | 0.00 | 54 | 1024.2 |
| 20260509015021 | 57 | 329 | 3.5 | 6.1 | 0.00 | 0.00 | 0.00 | 53 | 1024.2 |
| 20260509014521 | 56 | 306 | 2.6 | 5.2 | 0.00 | 0.00 | 0.00 | 58 | 1024.2 |
| 20260509014012 | 57 | 5 | 1.7 | 4.3 | 0.00 | 0.00 | 0.00 | 55 | 1024.3 |
| 20260509013512 | 57 | 14 | 2.6 | 5.2 | 0.00 | 0.00 | 0.00 | 55 | 1024.3 |
| 20260509013011 | 57 | 8 | 2.6 | 5.2 | 0.00 | 0.00 | 0.00 | 50 | 1024.4 |
| 20260509012522 | 57 | 321 | 2.6 | 4.3 | 0.00 | 0.00 | 0.00 | 52 | 1024.5 |
| 20260509012022 | 56 | 306 | 1.7 | 3.5 | 0.00 | 0.00 | 0.00 | 58 | 1024.5 |
| 20260509011512 | 56 | 351 | 2.6 | 4.3 | 0.00 | 0.00 | 0.00 | 58 | 1024.5 |
| 20260509011012 | 56 | 67 | 3.5 | 4.3 | 0.00 | 0.00 | 0.00 | 62 | 1024.5 |
| 20260509010512 | 55 | 54 | 3.5 | 4.3 | 0.00 | 0.00 | 0.00 | 66 | 1024.6 |
| 20260509010031 | 54 | 15 | 2.6 | 5.2 | 0.00 | 0.00 | 0.00 | 70 | 1024.6 |
| 20260509005512 | 53 | 305 | 3.5 | 6.1 | 0.00 | 0.00 | 0.00 | 72 | 1024.6 |
| 20260509005022 | 53 | 318 | 3.5 | 6.1 | 0.00 | 0.00 | 0.00 | 69 | 1024.7 |
| 20260509004521 | 54 | 359 | 1.7 | 2.6 | 0.00 | 0.00 | 0.00 | 65 | 1024.7 |
| 20260509004022 | 53 | 7 | 1.7 | 3.5 | 0.00 | 0.00 | 0.00 | 69 | 1024.7 |
| 20260509003542 | 52 | 0 | 3.5 | 6.1 | 0.00 | 0.00 | 0.00 | 75 | 1024.8 |
| 20260509003021 | 51 | 348 | 3.5 | 6.1 | 0.00 | 0.00 | 0.00 | 76 | 1024.7 |
| 20260509002521 | 51 | 319 | 2.6 | 5.2 | 0.00 | 0.00 | 0.00 | 75 | 1024.8 |
| 20260509002022 | 49 | 263 | 1.7 | 3.5 | 0.00 | 0.00 | 0.00 | 84 | 1024.9 |
| 20260509001522 | 50 | 323 | 1.7 | 3.5 | 0.00 | 0.00 | 0.00 | 78 | 1024.9 |
| 20260509000522 | 49 | 33 | 1.7 | 4.3 | 0.00 | 0.00 | 0.00 | 91 | 1025.1 |
| 20260509000012 | 48 | 4 | 1.7 | 4.3 | 0.00 | 0.00 | 0.00 | 93 | 1025.0 |
| 20260508235522 | 47 | 309 | 1.7 | 3.5 | 0.00 | 0.00 | 0.00 | 99 | 1025.0 |
| 20260508235012 | 45 | 281 | 1.7 | 3.5 | 0.00 | 0.00 | 0.00 | 98 | 1025.0 |
| 20260508234512 | 46 | 306 | 1.7 | 3.5 | 0.00 | 0.00 | 0.00 | 99 | 1025.0 |
| 20260508234013 | 46 | 296 | 1.7 | 3.5 | 0.00 | 0.00 | 0.00 | 99 | 1025.0 |
| 20260508233521 | 45 | 297 | 1.7 | 3.5 | 0.00 | 0.00 | 0.00 | 99 | 1025.0 |
| 20260508233021 | 45 | 307 | 1.7 | 3.5 | 0.00 | 0.00 | 0.00 | 100 | 1025.1 |
| 20260508232522 | 45 | 318 | 1.7 | 3.5 | 0.00 | 0.00 | 0.00 | 99 | 1025.1 |
| 20260508232022 | 45 | 312 | 1.7 | 3.5 | 0.00 | 0.00 | 0.00 | 99 | 1025.1 |
| 20260508231512 | 44 | 309 | 0.9 | 1.7 | 0.00 | 0.00 | 0.00 | 99 | 1025.1 |
| 20260508231057 | 44 | 296 | 1.7 | 2.6 | 0.00 | 0.00 | 0.00 | 99 | 1025.1 |
| 20260508230522 | 44 | 234 | 1.7 | 2.6 | 0.00 | 0.00 | 0.00 | 99 | 1024.9 |
| 20260508230022 | 45 | 194 | 0.9 | 2.6 | 0.00 | 0.00 | 0.00 | 99 | 1024.9 |
| 20260508225532 | 44 | 189 | 0.9 | 2.6 | 0.00 | 0.00 | 0.00 | 99 | 1024.9 |
| 20260508225022 | 44 | 356 | 0.9 | 2.6 | 0.00 | 0.00 | 0.00 | 99 | 1024.9 |
| 20260508224522 | 44 | 78 | 0.9 | 2.6 | 0.00 | 0.00 | 0.00 | 99 | 1024.9 |
| 20260508224022 | 44 | 70 | 1.7 | 2.6 | 0.00 | 0.00 | 0.00 | 99 | 1024.8 |
| 20260508223512 | 44 | 40 | 1.7 | 2.6 | 0.00 | 0.00 | 0.00 | 99 | 1024.6 |
| 20260508223032 | 44 | 54 | 0.9 | 1.7 | 0.00 | 0.00 | 0.00 | 99 | 1024.8 |
| 20260508222521 | 44 | 47 | 0.9 | 1.7 | 0.00 | 0.00 | 0.00 | 99 | 1024.6 |
| 20260508222012 | 43 | 37 | 0.9 | 2.6 | 0.00 | 0.00 | 0.00 | 99 | 1024.6 |
| 20260508221522 | 43 | 45 | 1.7 | 2.6 | 0.00 | 0.00 | 0.00 | 99 | 1024.5 |
| 20260508221031 | 43 | 35 | 0.9 | 1.7 | 0.00 | 0.00 | 0.00 | 99 | 1024.5 |
| 20260508220512 | 43 | 355 | 0.9 | 2.6 | 0.00 | 0.00 | 0.00 | 99 | 1024.4 |
| 20260508220022 | 43 | 321 | 0.9 | 2.6 | 0.00 | 0.00 | 0.00 | 99 | 1024.3 |
| 20260508215522 | 43 | 299 | 0.0 | 0.9 | 0.00 | 0.00 | 0.00 | 99 | 1024.4 |
| 20260508215021 | 43 | 341 | 0.9 | 1.7 | 0.00 | 0.00 | 0.00 | 98 | 1024.3 |
| 20260508214521 | 43 | 96 | 0.9 | 1.7 | 0.00 | 0.00 | 0.00 | 98 | 1024.2 |
| 20260508214032 | 42 | 78 | 0.0 | 1.7 | 0.00 | 0.00 | 0.00 | 98 | 1024.3 |
| 20260508213511 | 42 | 62 | 0.0 | 0.9 | 0.00 | 0.00 | 0.00 | 98 | 1024.1 |
| 20260508213022 | 42 | 194 | 0.0 | 0.9 | 0.00 | 0.00 | 0.00 | 98 | 1024.1 |
| 20260508212511 | 41 | 160 | 0.0 | 1.7 | 0.00 | 0.00 | 0.00 | 98 | 1024.1 |
| 20260508212012 | 41 | 129 | 0.9 | 1.7 | 0.00 | 0.00 | 0.00 | 99 | 1024.2 |
| 20260508211522 | 41 | 124 | 0.9 | 1.7 | 0.00 | 0.00 | 0.00 | 100 | 1024.1 |
| 20260508211012 | 41 | 126 | 0.9 | 1.7 | 0.00 | 0.00 | 0.00 | 100 | 1024.1 |
| 20260508210512 | 41 | 136 | 0.9 | 1.7 | 0.00 | 0.00 | 0.00 | 100 | 1023.9 |
| 20260508210012 | 40 | 115 | 0.9 | 1.7 | 0.00 | 0.00 | 0.00 | 100 | 1023.7 |
| 20260508205522 | 39 | 144 | 0.9 | 1.7 | 0.00 | 0.00 | 0.00 | 100 | 1023.6 |
| 20260508205011 | 39 | 157 | 0.9 | 1.7 | 0.00 | 0.00 | 0.00 | 100 | 1023.6 |
| 20260508204512 | 38 | 156 | 0.9 | 1.7 | 0.00 | 0.00 | 0.00 | 100 | 1023.5 |
| 20260508204013 | 39 | 137 | 0.9 | 1.7 | 0.00 | 0.00 | 0.00 | 100 | 1023.4 |
| 20260508203522 | 38 | 71 | 0.9 | 2.6 | 0.00 | 0.00 | 0.00 | 100 | 1023.4 |
| 20260508203012 | 37 | 81 | 1.7 | 2.6 | 0.00 | 0.00 | 0.00 | 100 | 1023.2 |
| 20260508202522 | 37 | 124 | 0.9 | 1.7 | 0.00 | 0.00 | 0.00 | 100 | 1023.1 |
| 20260508202032 | 37 | 127 | 0.9 | 1.7 | 0.00 | 0.00 | 0.00 | 100 | 1023.0 |
| 20260508201522 | 37 | 118 | 0.9 | 0.9 | 0.00 | 0.00 | 0.00 | 100 | 1022.9 |
| 20260508201031 | 36 | 107 | 0.9 | 2.6 | 0.00 | 0.00 | 0.00 | 100 | 1023.0 |
| 20260508200524 | 37 | 82 | 0.9 | 3.5 | 0.00 | 0.00 | 0.00 | 100 | 1022.9 |
| 20260508200012 | 37 | 57 | 1.7 | 3.5 | 0.00 | 0.00 | 0.00 | 100 | 1022.8 |
| 20260508195521 | 37 | 79 | 0.9 | 2.6 | 0.00 | 0.00 | 0.00 | 100 | 1022.8 |
| 20260508195011 | 37 | 147 | 0.9 | 1.7 | 0.00 | 0.00 | 0.00 | 100 | 1022.7 |
| 20260508194511 | 38 | 163 | 0.9 | 2.6 | 0.00 | 0.00 | 0.00 | 100 | 1022.7 |
| 20260508194012 | 37 | 135 | 0.9 | 2.6 | 0.00 | 0.00 | 0.00 | 100 | 1022.6 |
| 20260508193512 | 37 | 120 | 0.9 | 1.7 | 0.00 | 0.00 | 0.00 | 99 | 1022.5 |
| 20260508193033 | 37 | 118 | 0.9 | 1.7 | 0.00 | 0.00 | 0.00 | 100 | 1022.4 |
| 20260508192512 | 37 | 97 | 0.9 | 1.7 | 0.00 | 0.00 | 0.00 | 100 | 1022.4 |
| 20260508192022 | 37 | 106 | 0.9 | 1.7 | 0.00 | 0.00 | 0.00 | 100 | 1022.2 |
| 20260508191522 | 37 | 124 | 0.9 | 1.7 | 0.00 | 0.00 | 0.00 | 100 | 1022.3 |
| 20260508191022 | 38 | 61 | 1.7 | 3.5 | 0.00 | 0.00 | 0.00 | 100 | 1022.3 |
| 20260508190512 | 38 | 114 | 1.7 | 3.5 | 0.00 | 0.00 | 0.00 | 100 | 1022.3 |
| 20260508190022 | 38 | 146 | 1.7 | 3.5 | 0.00 | 0.00 | 0.00 | 100 | 1022.2 |
| 20260508185511 | 39 | 104 | 0.9 | 2.6 | 0.00 | 0.00 | 0.00 | 100 | 1022.3 |
| 20260508185012 | 39 | 122 | 0.9 | 2.6 | 0.00 | 0.00 | 0.00 | 100 | 1022.3 |
| 20260508184512 | 39 | 170 | 0.9 | 2.6 | 0.00 | 0.00 | 0.00 | 100 | 1022.3 |
| 20260508184012 | 39 | 165 | 1.7 | 2.6 | 0.00 | 0.00 | 0.00 | 100 | 1022.1 |
| 20260508183512 | 40 | 141 | 0.9 | 2.6 | 0.00 | 0.00 | 0.00 | 100 | 1022.2 |
| 20260508183012 | 40 | 133 | 1.7 | 2.6 | 0.00 | 0.00 | 0.00 | 100 | 1022.2 |
| 20260508182522 | 40 | 144 | 1.7 | 3.5 | 0.00 | 0.00 | 0.00 | 100 | 1022.2 |
| 20260508182031 | 41 | 46 | 1.7 | 3.5 | 0.00 | 0.00 | 0.00 | 100 | 1022.1 |
| 20260508181512 | 40 | 43 | 1.7 | 3.5 | 0.00 | 0.00 | 0.00 | 100 | 1022.2 |
| 20260508181035 | 40 | 82 | 0.9 | 2.6 | 0.00 | 0.00 | 0.00 | 100 | 1022.2 |
| 20260508180512 | 41 | 74 | 1.7 | 4.3 | 0.00 | 0.00 | 0.00 | 100 | 1022.0 |
| 20260508180021 | 42 | 13 | 3.5 | 5.2 | 0.00 | 0.00 | 0.00 | 100 | 1022.0 |
| 20260508175511 | 41 | 16 | 2.6 | 5.2 | 0.00 | 0.00 | 0.00 | 100 | 1022.0 |
| 20260508175022 | 41 | 124 | 2.6 | 5.2 | 0.00 | 0.00 | 0.00 | 100 | 1022.1 |
| 20260508174511 | 41 | 52 | 2.6 | 6.1 | 0.00 | 0.00 | 0.00 | 100 | 1021.9 |
| 20260508174011 | 41 | 7 | 2.6 | 6.1 | 0.00 | 0.00 | 0.00 | 100 | 1022.1 |
| 20260508173522 | 41 | 111 | 2.6 | 6.1 | 0.00 | 0.00 | 0.00 | 100 | 1022.1 |
| 20260508173022 | 41 | 54 | 2.6 | 5.2 | 0.00 | 0.00 | 0.00 | 100 | 1021.8 |
| 20260508172522 | 40 | 62 | 2.6 | 5.2 | 0.00 | 0.00 | 0.00 | 100 | 1022.0 |
| 20260508172023 | 41 | 116 | 2.6 | 4.3 | 0.00 | 0.00 | 0.00 | 100 | 1021.8 |
| 20260508171522 | 41 | 37 | 2.6 | 6.1 | 0.00 | 0.00 | 0.00 | 100 | 1022.0 |
| 20260508171012 | 41 | 21 | 2.6 | 6.1 | 0.00 | 0.00 | 0.00 | 100 | 1022.0 |
| 20260508170522 | 42 | 105 | 2.6 | 4.3 | 0.00 | 0.00 | 0.00 | 100 | 1022.0 |
| 20260508170022 | 42 | 124 | 1.7 | 4.3 | 0.00 | 0.00 | 0.00 | 100 | 1022.0 |
| 20260508165521 | 42 | 82 | 1.7 | 3.5 | 0.00 | 0.00 | 0.00 | 100 | 1022.2 |
| 20260508165012 | 42 | 102 | 1.7 | 3.5 | 0.00 | 0.00 | 0.00 | 100 | 1022.1 |
| 20260508164521 | 43 | 143 | 2.6 | 5.2 | 0.00 | 0.00 | 0.00 | 100 | 1021.9 |
| 20260508164012 | 43 | 112 | 2.6 | 5.2 | 0.00 | 0.00 | 0.00 | 100 | 1021.9 |
| 20260508163511 | 44 | 96 | 2.6 | 5.2 | 0.00 | 0.00 | 0.00 | 99 | 1022.0 |
| 20260508163028 | 44 | 80 | 1.7 | 3.5 | 0.00 | 0.00 | 0.00 | 99 | 1021.9 |
| 20260508162522 | 44 | 66 | 2.6 | 3.5 | 0.00 | 0.00 | 0.00 | 99 | 1021.8 |